This is the latest recevied weather packets stored in our database for station/object K4ROM-1. If no packets are shown the sender has not sent any weather packets the latest 10 day(s).
| Time | Temp. | Humidity | Pressure | Rain* | Wind** | Luminosity | Snow |
|---|---|---|---|---|---|---|---|
| 1778155203 | 18.89° C | 99% | 1011 hPa | 1.78 mm | 0 m/s | - | - |
| 1778154603 | 18.33° C | 99% | 1011.1 hPa | 0 mm | 0 m/s | - | - |
| 1778154003 | 18.33° C | 99% | 1011.2 hPa | 0 mm | 0.45 m/s, 251° | - | - |
| 1778153403 | 18.33° C | 99% | 1010.9 hPa | 0 mm | 0 m/s | - | - |
| 1778152803 | 18.33° C | 99% | 1011.2 hPa | 0 mm | 0 m/s | - | - |
| 1778152203 | 18.33° C | 99% | 1011.2 hPa | 0 mm | 0 m/s | - | - |
| 1778151603 | 18.33° C | 99% | 1011.3 hPa | 0 mm | 0 m/s | - | - |
| 1778151007 | 18.33° C | 99% | 1010.9 hPa | 0 mm | 0 m/s | - | - |
| 1778150404 | 17.78° C | 99% | 1010.7 hPa | 0 mm | 0 m/s | - | - |
| 1778149803 | 17.78° C | 99% | 1010.9 hPa | 0 mm | 0 m/s | - | - |
| 1778149203 | 17.78° C | 99% | 1010.8 hPa | 0 mm | 0 m/s | - | - |
| 1778148603 | 17.78° C | 99% | 1010.9 hPa | 0 mm | 0 m/s | - | - |
| 1778148003 | 17.78° C | 99% | 1010.7 hPa | 0 mm | 0 m/s | - | - |
| 1778147403 | 17.78° C | 99% | 1011.4 hPa | 0 mm | 0 m/s | - | - |
| 1778146802 | 17.78° C | 99% | 1011.4 hPa | 1.02 mm | 0 m/s | - | - |
| 1778146204 | 17.78° C | 99% | 1011.1 hPa | 0 mm | 0 m/s | - | - |
| 1778145603 | 17.78° C | 99% | 1011 hPa | 1.78 mm | 0 m/s | - | - |
| 1778145003 | 17.78° C | 99% | 1011.2 hPa | 1.78 mm | 0 m/s | - | - |
| 1778144403 | 17.78° C | 99% | 1011.4 hPa | 1.02 mm | 0 m/s | - | - |
| 1778143803 | 17.78° C | 99% | 1010.7 hPa | 1.78 mm | 0 m/s | - | - |
| 1778143204 | 17.78° C | 99% | 1010.7 hPa | 1.02 mm | 0 m/s | - | - |
| 1778142602 | 17.78° C | 99% | 1011 hPa | 2.79 mm | 0 m/s | - | - |
| 1778142003 | 17.78° C | 99% | 1010.6 hPa | 1.78 mm | 0 m/s | - | - |
| 1778141403 | 17.78° C | 99% | 1011.7 hPa | 2.79 mm | 0.45 m/s, 314° | - | - |
| 1778140803 | 17.78° C | 99% | 1010.7 hPa | 1.02 mm | 0 m/s | - | - |
* Rain latest hour (hover to see other rain measurements)
** Current wind speed in m/s (hover to see current wind gust speed)